Tracking 31027 objects as of 19-Jul-2025
HD Live streaming from Space Station
objects crossing your sky now

EKRAN 18

Track EKRAN 18 now!
EKRAN 18 is classified as:


NORAD ID: 19090
Int'l Code: 1988-036A
Perigee: 37,239.1 km
Apogee: 37,329.6 km
Inclination: 13.8 °
Period: 1,512.9 minutes
Semi major axis: 43655 km
RCS: 6.0212 m2 (large)
Launch date: May 6, 1988
Source: Commonwealth of Independent States (former USSR) (CIS)
Launch site: TYURATAM MISSILE AND SPACE COMPLEX (TTMTR)
Your satellite tracking list
FENGYUN 1C DEB
Track 1 satellite(s)




NASA's NSSDC Master Catalog

Two Line Element Set (TLE):
1 19090U 88036A   25199.02745083 -.00000113  00000-0  00000-0 0  9995
2 19090  13.7829 334.6937 0010363  99.6551  82.4363  0.95180133113836
Source of the keplerian elements: AFSPC